When you browse on this site, cookies collect data to enhance your experience and personalize the content and advertising you see.
Visit our Privacy Policy to learn more. By continuing to use the site, you agree to this use of cookies and data.
  • In Portugal
  • List of Countries
  • For 7 days
  • Water Temperature
  • Satellite Maps
  • Weather Map
  • Weather Widgets
  • user-avatar
    Login

    Hourly Weather Krizhopol

    Today, 17 November, Saturday

    Time Temperature Precipitation Wind Pressure Humidity
    00:00 -2°C° 0 mm 5 mps 750 mmHg 50%
    01:00 -3°C° 0 mm 4 mps 750 mmHg 51%
    02:00 -3°C° 0 mm 4 mps 750 mmHg 52%
    03:00 -3°C° 0 mm 4 mps 750 mmHg 54%
    04:00 -3°C° 0 mm 4 mps 750 mmHg 55%
    05:00 -3°C° 0 mm 4 mps 750 mmHg 57%
    06:00 -3°C° 0 mm 4 mps 750 mmHg 59%
    07:00 -3°C° 0 mm 4 mps 750 mmHg 61%
    08:00 -4°C° 0 mm 4 mps 751 mmHg 65%
    09:00 -3°C° 0 mm 4 mps 751 mmHg 65%
    10:00 -3°C° 0 mm 4 mps 751 mmHg 66%
    11:00 -3°C° 0 mm 4 mps 751 mmHg 66%
    12:00 -2°C° 0 mm 4 mps 751 mmHg 67%
    13:00 -2°C° 0 mm 4 mps 750 mmHg 67%
    14:00 -2°C° 0 mm 3 mps 750 mmHg 63%
    15:00 -2°C° 0 mm 3 mps 750 mmHg 64%
    16:00 -2°C° 0 mm 3 mps 750 mmHg 64%
    17:00 -2°C° 0 mm 2 mps 750 mmHg 65%
    18:00 -2°C° 0 mm 2 mps 750 mmHg 65%
    19:00 -2°C° 0 mm 2 mps 750 mmHg 65%
    20:00 -2°C° 0 mm 2 mps 749 mmHg 65%
    21:00 -2°C° 0 mm 2 mps 749 mmHg 65%
    22:00 -2°C° 0 mm 2 mps 749 mmHg 65%
    23:00 0°C° 0 mm 1 mps 749 mmHg 66%

    Tomorrow, 18 November, Sunday

    Time Temperature Precipitation Wind Pressure Humidity
    00:00 -1°C° 0 mm 1 mps 748 mmHg 66%
    01:00 -3°C° 0 mm 2 mps 748 mmHg 66%
    02:00 -3°C° 0 mm 2 mps 748 mmHg 66%
    03:00 -1°C° 0 mm 1 mps 747 mmHg 65%
    04:00 -1°C° 0 mm 1 mps 747 mmHg 64%
    05:00 -1°C° 0 mm 1 mps 746 mmHg 64%
    06:00 -1°C° 0 mm 1 mps 746 mmHg 63%
    07:00 -1°C° 0 mm 1 mps 746 mmHg 62%
    08:00 -1°C° 0 mm 1 mps 745 mmHg 61%
    09:00 0°C° 0 mm 1 mps 745 mmHg 57%
    10:00 +1°C° 0 mm 1 mps 745 mmHg 53%
    11:00 +1°C° 0 mm 1 mps 744 mmHg 49%
    12:00 +2°C° 0 mm 1 mps 744 mmHg 47%
    13:00 +2°C° 0 mm 1 mps 743 mmHg 46%
    14:00 +3°C° 0 mm 1 mps 743 mmHg 44%
    15:00 +3°C° 0 mm 1 mps 743 mmHg 46%
    16:00 +2°C° 0 mm 1 mps 742 mmHg 48%
    17:00 +1°C° 0 mm 0 mps 742 mmHg 50%
    18:00 0°C° 0 mm 0 mps 742 mmHg 51%
    19:00 0°C° 0 mm 0 mps 742 mmHg 52%
    20:00 0°C° 0 mm 0 mps 741 mmHg 53%
    21:00 +1°C° 0 mm 1 mps 741 mmHg 54%
    22:00 0°C° 0 mm 1 mps 741 mmHg 54%
    23:00 0°C° 0 mm 1 mps 741 mmHg 55%

    Day after tomorrow, 19 November, Monday

    Time Temperature Precipitation Wind Pressure Humidity
    00:00 0°C° 0 mm 1 mps 741 mmHg 56%
    01:00 0°C° 0 mm 1 mps 741 mmHg 57%
    02:00 0°C° 0 mm 1 mps 741 mmHg 57%
    03:00 -3°C° 0 mm 2 mps 741 mmHg 59%
    04:00 -3°C° 0 mm 2 mps 740 mmHg 60%
    05:00 -3°C° 0 mm 2 mps 740 mmHg 62%
    06:00 -3°C° 0 mm 2 mps 740 mmHg 62%
    07:00 -4°C° 0 mm 3 mps 740 mmHg 62%
    08:00 -2°C° 0 mm 3 mps 740 mmHg 62%
    09:00 -2°C° 0 mm 3 mps 741 mmHg 59%
    10:00 -2°C° 0 mm 4 mps 741 mmHg 55%
    11:00 -1°C° 0 mm 4 mps 741 mmHg 52%
    12:00 -1°C° 0 mm 4 mps 741 mmHg 50%
    13:00 -1°C° 0 mm 4 mps 740 mmHg 49%
    14:00 -1°C° 0 mm 5 mps 740 mmHg 48%
    15:00 -1°C° 0 mm 4 mps 740 mmHg 50%
    16:00 -2°C° 0 mm 4 mps 740 mmHg 53%
    17:00 -2°C° 0 mm 4 mps 740 mmHg 56%
    18:00 -2°C° 0 mm 4 mps 740 mmHg 58%
    19:00 -2°C° 0 mm 4 mps 740 mmHg 61%
    20:00 -2°C° 0 mm 4 mps 741 mmHg 63%
    21:00 -3°C° 0 mm 4 mps 741 mmHg 64%
    22:00 -3°C° 0 mm 4 mps 741 mmHg 65%
    23:00 -3°C° 0 mm 4 mps 741 mmHg 67%

    20 November, Tuesday

    Time Temperature Precipitation Wind Pressure Humidity
    00:00 -3°C° 0 mm 4 mps 741 mmHg 67%
    01:00 -3°C° 0 mm 4 mps 741 mmHg 67%
    02:00 -4°C° 0 mm 5 mps 741 mmHg 67%
    03:00 -4°C° 0 mm 4 mps 741 mmHg 67%
    04:00 -4°C° 0 mm 4 mps 741 mmHg 68%
    05:00 -4°C° 0 mm 4 mps 741 mmHg 69%
    06:00 -4°C° 0 mm 4 mps 742 mmHg 69%
    07:00 -4°C° 0 mm 4 mps 742 mmHg 70%
    08:00 -4°C° 0 mm 3 mps 742 mmHg 70%
    09:00 -2°C° 0 mm 3 mps 742 mmHg 67%
    10:00 -1°C° 0 mm 3 mps 743 mmHg 64%
    11:00 0°C° 0 mm 3 mps 743 mmHg 60%
    12:00 0°C° 0 mm 3 mps 743 mmHg 60%
    13:00 0°C° 0 mm 4 mps 742 mmHg 60%
    14:00 0°C° 0 mm 4 mps 742 mmHg 59%
    15:00 +1°C° 0 mm 3 mps 742 mmHg 64%
    16:00 0°C° 0 mm 3 mps 742 mmHg 68%
    17:00 -1°C° 0 mm 2 mps 742 mmHg 72%
    18:00 -1°C° 0 mm 2 mps 742 mmHg 74%
    19:00 -2°C° 0 mm 3 mps 742 mmHg 76%
    20:00 -2°C° 0 mm 3 mps 742 mmHg 78%
    21:00 -2°C° 0 mm 3 mps 742 mmHg 78%
    22:00 -2°C° 0 mm 3 mps 742 mmHg 79%
    23:00 -2°C° 0 mm 3 mps 742 mmHg 79%

    21 November, Wednesday

    Time Temperature Precipitation Wind Pressure Humidity
    00:00 -2°C° 0 mm 3 mps 742 mmHg 80%
    01:00 -2°C° 0 mm 3 mps 741 mmHg 81%
    02:00 -2°C° 0 mm 3 mps 741 mmHg 81%
    03:00 -2°C° 0 mm 3 mps 741 mmHg 82%
    04:00 -2°C° 0 mm 3 mps 741 mmHg 82%
    05:00 -3°C° 0 mm 4 mps 740 mmHg 83%
    06:00 -3°C° 0.1 mm 4 mps 740 mmHg 82%
    07:00 -3°C° 0.1 mm 4 mps 740 mmHg 82%
    08:00 -3°C° 0.1 mm 4 mps 740 mmHg 81%
    09:00 -3°C° 0.1 mm 4 mps 740 mmHg 80%
    10:00 -3°C° 0.1 mm 4 mps 741 mmHg 79%
    11:00 -2°C° 0.1 mm 4 mps 741 mmHg 77%
    12:00 -2°C° 0.1 mm 4 mps 741 mmHg 76%
    13:00 -2°C° 0.1 mm 5 mps 740 mmHg 75%
    14:00 -1°C° 0.1 mm 5 mps 740 mmHg 74%
    15:00 -1°C° 0 mm 5 mps 740 mmHg 75%
    16:00 -2°C° 0 mm 4 mps 740 mmHg 76%
    17:00 -2°C° 0 mm 4 mps 740 mmHg 77%
    18:00 -2°C° 0 mm 4 mps 741 mmHg 78%
    19:00 -2°C° 0 mm 5 mps 741 mmHg 79%
    20:00 -2°C° 0 mm 5 mps 741 mmHg 80%
    21:00 -3°C° 0 mm 4 mps 741 mmHg 81%
    22:00 -3°C° 0 mm 4 mps 742 mmHg 82%
    23:00 -3°C° 0 mm 4 mps 742 mmHg 82%

    22 November, Thursday

    Time Temperature Precipitation Wind Pressure Humidity
    00:00 -3°C° 0 mm 4 mps 742 mmHg 82%
    01:00 -3°C° 0 mm 4 mps 742 mmHg 82%
    02:00 -3°C° 0 mm 4 mps 742 mmHg 82%
    03:00 -4°C° 0 mm 4 mps 742 mmHg 81%
    04:00 -4°C° 0 mm 4 mps 742 mmHg 81%
    05:00 -4°C° 0 mm 4 mps 742 mmHg 81%
    06:00 -4°C° 0 mm 4 mps 742 mmHg 80%
    07:00 -4°C° 0 mm 4 mps 743 mmHg 80%
    08:00 -4°C° 0 mm 4 mps 743 mmHg 80%
    09:00 -3°C° 0 mm 4 mps 743 mmHg 75%
    10:00 -2°C° 0 mm 3 mps 744 mmHg 71%
    11:00 -1°C° 0 mm 3 mps 744 mmHg 67%
    12:00 0°C° 0 mm 3 mps 744 mmHg 64%
    13:00 0°C° 0 mm 3 mps 744 mmHg 62%
    14:00 +1°C° 0 mm 3 mps 744 mmHg 59%
    15:00 +1°C° 0 mm 2 mps 744 mmHg 63%
    16:00 -1°C° 0 mm 2 mps 744 mmHg 67%
    17:00 -2°C° 0 mm 2 mps 744 mmHg 71%
    18:00 -3°C° 0 mm 2 mps 745 mmHg 73%
    19:00 -3°C° 0 mm 2 mps 745 mmHg 75%
    20:00 -3°C° 0 mm 2 mps 745 mmHg 77%
    21:00 -4°C° 0 mm 2 mps 745 mmHg 78%
    22:00 -4°C° 0 mm 2 mps 746 mmHg 79%
    23:00 -2°C° 0 mm 1 mps 746 mmHg 79%
    Show more